timestamp,surface_pressure_avg,surface_temp_avg,battery_voltage,lat,long
2018-01-24 00:00:00+00:00,255.0963,0.5,12.57,47.84626,-54.09684
2018-01-24 00:10:00+00:00,258.7031,0.54,12.49,47.84626,-54.09684
2018-01-24 00:20:00+00:00,264.233,0.58,12.57,47.84626,-54.09684
2018-01-24 00:30:00+00:00,264.9331,0.57,12.57,47.84626,-54.09684
2018-01-24 00:40:00+00:00,264.6114,0.4,12.57,47.84626,-54.09684
2018-01-24 00:50:00+00:00,262.4131,0.3,12.65,47.84626,-54.09684
2018-01-24 01:00:00+00:00,264.9797,0.23,12.57,47.84626,-54.09684
2018-01-24 01:10:00+00:00,267.8631,0.29,12.49,47.84626,-54.09684
2018-01-24 01:20:00+00:00,271.6697,0.3,12.57,47.84626,-54.09684
2018-01-24 01:30:00+00:00,273.6797,0.1,12.57,47.84626,-54.09684
2018-01-24 01:40:00+00:00,282.1264,0.24,12.57,47.84626,-54.09684
2018-01-24 01:50:00+00:00,289.7264,0.55,12.57,47.84626,-54.09684
2018-01-24 02:00:00+00:00,292.1247,0.5,12.57,47.84626,-54.09684
2018-01-24 02:10:00+00:00,294.0547,0.4,12.49,47.84626,-54.09684
2018-01-24 02:20:00+00:00,301.7014,0.59,12.57,47.84626,-54.09684
2018-01-24 02:30:00+00:00,306.1796,0.7,12.57,47.84626,-54.09684
2018-01-24 02:40:00+00:00,308.6664,0.7,12.57,47.84626,-54.09684
2018-01-24 02:50:00+00:00,318.2397,0.7,12.57,47.84626,-54.09684
2018-01-24 03:00:00+00:00,325.0646,0.7,12.57,47.84626,-54.09684
2018-01-24 03:10:00+00:00,322.758,0.7,12.49,47.84626,-54.09684
2018-01-24 03:20:00+00:00,322.3196,0.6,12.57,47.84626,-54.09684
2018-01-24 03:30:00+00:00,324.7746,0.6,12.57,47.84626,-54.09684
2018-01-24 03:40:00+00:00,329.5763,0.6,12.57,47.84626,-54.09684
2018-01-24 03:50:00+00:00,332.5364,0.8,12.57,47.84626,-54.09684
2018-01-24 04:00:00+00:00,337.9363,0.96,12.57,47.84626,-54.09684
2018-01-24 04:10:00+00:00,339.1479,0.99,12.49,47.84626,-54.09684
2018-01-24 04:20:00+00:00,335.858,0.8,12.57,47.84626,-54.09684
2018-01-24 04:30:00+00:00,336.1246,0.6,12.57,47.84626,-54.09684
2018-01-24 04:40:00+00:00,340.0562,0.7,12.57,47.84626,-54.09684
2018-01-24 04:50:00+00:00,341.1663,0.9,12.57,47.84626,-54.09684
2018-01-24 05:00:00+00:00,335.4646,0.8,12.57,47.84626,-54.09684
2018-01-24 05:10:00+00:00,335.5629,0.79,12.49,47.84626,-54.09684
2018-01-24 05:20:00+00:00,340.1179,0.8,12.57,47.84626,-54.09684
2018-01-24 05:30:00+00:00,334.3863,0.7,12.57,47.84626,-54.09684
2018-01-24 05:40:00+00:00,327.0796,0.6,12.57,47.84626,-54.09684
2018-01-24 05:50:00+00:00,329.7496,0.66,12.57,47.84626,-54.09684
2018-01-24 06:00:00+00:00,330.2863,0.7,12.57,47.84626,-54.09684
2018-01-24 06:10:00+00:00,328.533,0.7,12.49,47.84626,-54.09684
2018-01-24 06:20:00+00:00,327.2231,0.6,12.57,47.84626,-54.09684
2018-01-24 06:30:00+00:00,323.003,0.68,12.57,47.84626,-54.09684
2018-01-24 06:40:00+00:00,315.463,0.88,12.57,47.84626,-54.09684
2018-01-24 06:50:00+00:00,307.258,0.8,12.57,47.84626,-54.09684
2018-01-24 07:00:00+00:00,294.6946,0.8,12.57,47.84626,-54.09684
2018-01-24 07:10:00+00:00,285.7097,0.7,12.49,47.84626,-54.09684
2018-01-24 07:20:00+00:00,283.0331,0.7,12.57,47.84626,-54.09684
2018-01-24 07:30:00+00:00,274.7547,0.6,12.57,47.84626,-54.09684
2018-01-24 07:40:00+00:00,261.833,0.5,12.57,47.84626,-54.09684
2018-01-24 07:50:00+00:00,261.3197,0.58,12.65,47.84626,-54.09684
2018-01-24 08:00:00+00:00,258.9847,0.59,12.57,47.84626,-54.09684
2018-01-24 08:10:00+00:00,252.4914,0.5,12.49,47.84626,-54.09684
2018-01-24 08:20:00+00:00,245.5764,0.5,12.57,47.84626,-54.09684
2018-01-24 08:30:00+00:00,241.4698,0.49,12.57,47.84626,-54.09684
2018-01-24 08:40:00+00:00,233.1081,0.4,12.65,47.84626,-54.09684
2018-01-24 08:50:00+00:00,224.1914,0.43,12.65,47.84626,-54.09684
2018-01-24 09:00:00+00:00,221.0598,0.49,12.57,47.84626,-54.09684
2018-01-24 09:10:00+00:00,218.6864,0.5,12.49,47.84626,-54.09684
2018-01-24 09:20:00+00:00,210.4198,0.5,12.57,47.84626,-54.09684
2018-01-24 09:30:00+00:00,210.1248,0.5,12.57,47.84626,-54.09684
2018-01-24 09:40:00+00:00,220.2498,0.5,12.65,47.84626,-54.09684
2018-01-24 09:50:00+00:00,221.1297,0.5,12.65,47.84626,-54.09684
2018-01-24 10:00:00+00:00,219.3381,0.4,12.57,47.84626,-54.09684
2018-01-24 10:10:00+00:00,223.0247,0.39,12.57,47.84626,-54.09684
2018-01-24 10:20:00+00:00,225.8881,0.39,12.57,47.84626,-54.09684
2018-01-24 10:30:00+00:00,230.9214,0.4,12.57,47.84626,-54.09684
2018-01-24 10:40:00+00:00,233.4181,0.4,12.65,47.84626,-54.09684
2018-01-24 10:50:00+00:00,234.7764,0.4,12.65,47.84626,-54.09684
2018-01-24 11:00:00+00:00,236.4114,0.4,12.57,47.84626,-54.09684
2018-01-24 11:10:00+00:00,240.9315,0.41,12.57,47.84626,-54.09684
2018-01-24 11:20:00+00:00,247.0764,0.4,12.57,47.84626,-54.09684
2018-01-24 11:30:00+00:00,249.1614,0.42,12.57,47.84626,-54.09684
2018-01-24 11:40:00+00:00,251.7581,0.46,12.65,47.84626,-54.09684
2018-01-24 11:50:00+00:00,256.9314,0.4,12.65,47.84626,-54.09684
2018-01-24 12:00:00+00:00,257.3348,0.48,12.57,47.84626,-54.09684
2018-01-24 12:10:00+00:00,255.0031,0.5,12.57,47.84626,-54.09684
2018-01-24 12:20:00+00:00,259.3064,0.5,12.57,47.84626,-54.09684
2018-01-24 12:30:00+00:00,266.8597,0.47,12.57,47.84626,-54.09684
2018-01-24 12:40:00+00:00,264.0447,0.5,12.65,47.84626,-54.09684
2018-01-24 12:50:00+00:00,259.3347,0.5,12.65,47.84626,-54.09684
2018-01-24 13:00:00+00:00,266.2964,0.5,12.57,47.84626,-54.09684
2018-01-24 13:10:00+00:00,274.8747,0.5,12.57,47.84626,-54.09684
2018-01-24 13:20:00+00:00,271.8648,0.5,12.57,47.84626,-54.09684
2018-01-24 13:30:00+00:00,277.928,0.5,12.57,47.84626,-54.09684
2018-01-24 13:40:00+00:00,293.5214,0.5,12.65,47.84626,-54.09684
2018-01-24 13:50:00+00:00,299.0797,0.53,12.65,47.84626,-54.09684
2018-01-24 14:00:00+00:00,301.4313,0.59,12.57,47.84626,-54.09684
2018-01-24 14:10:00+00:00,316.5129,0.59,12.57,47.84626,-54.09684
2018-01-24 14:20:00+00:00,328.8063,0.6,12.57,47.84626,-54.09684
2018-01-24 14:30:00+00:00,328.2796,0.6,12.57,47.84626,-54.09684
2018-01-24 14:40:00+00:00,329.9013,0.6,12.65,47.84626,-54.09684
2018-01-24 14:50:00+00:00,342.188,0.6,12.65,47.84626,-54.09684
2018-01-24 15:00:00+00:00,343.7213,0.6,12.57,47.84626,-54.09684
2018-01-24 15:10:00+00:00,332.9363,0.7,12.57,47.84626,-54.09684
2018-01-24 15:20:00+00:00,338.3763,0.69,12.65,47.84626,-54.09684
2018-01-24 15:30:00+00:00,352.6063,0.6,12.65,47.84626,-54.09684
2018-01-24 15:40:00+00:00,353.4379,0.68,12.65,47.84626,-54.09684
2018-01-24 15:50:00+00:00,352.2629,0.7,12.65,47.84626,-54.09684
2018-01-24 16:00:00+00:00,366.103,0.7,12.57,47.84626,-54.09684
2018-01-24 16:10:00+00:00,371.9813,0.74,12.57,47.84626,-54.09684
2018-01-24 16:20:00+00:00,362.9346,0.8,12.65,47.84626,-54.09684
2018-01-24 16:30:00+00:00,362.8346,0.8,12.65,47.84626,-54.09684
2018-01-24 16:40:00+00:00,371.8047,0.8,12.65,47.84626,-54.09684
2018-01-24 16:50:00+00:00,360.6029,0.8,12.65,47.84626,-54.09684
2018-01-24 17:00:00+00:00,344.3297,0.8,12.57,47.84626,-54.09684
2018-01-24 17:10:00+00:00,348.528,0.8,12.57,47.84626,-54.09684
2018-01-24 17:20:00+00:00,355.7863,0.8,12.57,47.84626,-54.09684
2018-01-24 17:30:00+00:00,341.2047,0.8,12.57,47.84626,-54.09684
2018-01-24 17:40:00+00:00,320.648,0.8,12.65,47.84626,-54.09684
2018-01-24 17:50:00+00:00,329.313,0.81,12.65,47.84626,-54.09684
2018-01-24 18:00:00+00:00,339.3646,0.83,12.57,47.84626,-54.09684
2018-01-24 18:10:00+00:00,320.4481,0.84,12.57,47.84626,-54.09684
2018-01-24 18:20:00+00:00,314.4463,0.83,12.57,47.84626,-54.09684
2018-01-24 18:30:00+00:00,333.6196,0.85,12.57,47.84626,-54.09684
2018-01-24 18:40:00+00:00,330.8146,0.88,12.65,47.84626,-54.09684
2018-01-24 18:50:00+00:00,291.0713,0.89,12.65,47.84626,-54.09684
2018-01-24 19:00:00+00:00,278.8264,0.87,12.57,47.84626,-54.09684
2018-01-24 19:10:00+00:00,289.2197,0.88,12.57,47.84626,-54.09684
2018-01-24 19:20:00+00:00,286.5547,0.89,12.57,47.84626,-54.09684
2018-01-24 19:30:00+00:00,273.2814,0.89,12.57,47.84626,-54.09684
2018-01-24 19:40:00+00:00,278.5314,0.9,12.65,47.84626,-54.09684
2018-01-24 19:50:00+00:00,282.238,0.89,12.65,47.84626,-54.09684
2018-01-24 20:00:00+00:00,266.2097,0.89,12.57,47.84626,-54.09684
2018-01-24 20:10:00+00:00,251.0648,0.9,12.57,47.84626,-54.09684
2018-01-24 20:20:00+00:00,250.5064,0.9,12.57,47.84626,-54.09684
2018-01-24 20:30:00+00:00,251.6364,0.9,12.57,47.84626,-54.09684
2018-01-24 20:40:00+00:00,232.3965,0.9,12.65,47.84626,-54.09684
2018-01-24 20:50:00+00:00,212.3598,0.9,12.65,47.84626,-54.09684
2018-01-24 21:00:00+00:00,213.8831,0.9,12.57,47.84626,-54.09684
2018-01-24 21:10:00+00:00,214.1881,0.9,12.57,47.84626,-54.09684
2018-01-24 21:20:00+00:00,198.1215,0.9,12.57,47.84626,-54.09684
2018-01-24 21:30:00+00:00,189.3131,0.9,12.57,47.84626,-54.09684
2018-01-24 21:40:00+00:00,202.7614,0.91,12.65,47.84626,-54.09684
2018-01-24 21:50:00+00:00,209.0115,0.92,12.65,47.84626,-54.09684
2018-01-24 22:00:00+00:00,193.7648,0.94,12.57,47.84626,-54.09684
2018-01-24 22:10:00+00:00,189.7315,0.94,12.57,47.84626,-54.09684
2018-01-24 22:20:00+00:00,204.6231,0.95,12.57,47.84626,-54.09684
2018-01-24 22:30:00+00:00,205.8398,0.95,12.57,47.84626,-54.09684
2018-01-24 22:40:00+00:00,196.8948,0.96,12.65,47.84626,-54.09684
2018-01-24 22:50:00+00:00,200.2948,0.96,12.65,47.84626,-54.09684
2018-01-24 23:00:00+00:00,209.0498,0.97,12.57,47.84626,-54.09684
2018-01-24 23:10:00+00:00,206.5431,0.98,12.57,47.84626,-54.09684
2018-01-24 23:20:00+00:00,203.8764,0.94,12.57,47.84626,-54.09684
2018-01-24 23:30:00+00:00,212.5614,0.9,12.57,47.84626,-54.09684
2018-01-24 23:40:00+00:00,216.5415,0.9,12.65,47.84626,-54.09684
2018-01-24 23:50:00+00:00,209.7982,0.86,12.65,47.84626,-54.09684
